This is the latest recevied weather packets stored in our database for station/object KC3ELT-10. If no packets are shown the sender has not sent any weather packets the latest 10 day(s).
| Time | Temp. | Humidity | Pressure | Rain* | Wind** | Luminosity | Snow |
|---|---|---|---|---|---|---|---|
| 1777843379 | 14.44° C | 31% | 1005.7 hPa | 0 mm | 1.34 m/s, 340° | - | - |
| 1777843079 | 13.89° C | 33% | 1005.7 hPa | 0 mm | 1.34 m/s, 345° | - | - |
| 1777842779 | 13.89° C | 32% | 1005.8 hPa | 0 mm | 4.02 m/s, 359° | - | - |
| 1777842479 | 13.89° C | 32% | 1005.8 hPa | 0 mm | 1.79 m/s, 349° | - | - |
| 1777842179 | 13.89° C | 32% | 1005.8 hPa | 0 mm | 2.68 m/s, 294° | - | - |
| 1777841879 | 13.33° C | 32% | 1005.9 hPa | 0 mm | 1.34 m/s, 289° | - | - |
| 1777841579 | 13.33° C | 33% | 1005.9 hPa | 0 mm | 2.68 m/s, 323° | - | - |
| 1777841279 | 13.33° C | 32% | 1005.9 hPa | 0 mm | 4.92 m/s, 306° | - | - |
| 1777840979 | 13.33° C | 32% | 1006 hPa | 0 mm | 2.68 m/s, 359° | - | - |
| 1777840679 | 13.33° C | 32% | 1006 hPa | 0 mm | 4.47 m/s, 319° | - | - |
| 1777840379 | 13.33° C | 33% | 1006 hPa | 0 mm | 4.47 m/s, 259° | - | - |
| 1777840079 | 13.33° C | 33% | 1006.1 hPa | 0 mm | 1.79 m/s, 316° | - | - |
| 1777839779 | 13.33° C | 34% | 1006.1 hPa | 0 mm | 0.89 m/s, 287° | - | - |
| 1777839479 | 13.33° C | 33% | 1006.1 hPa | 0 mm | 4.47 m/s, 334° | - | - |
| 1777839179 | 12.78° C | 33% | 1006.3 hPa | 0 mm | 4.92 m/s, 283° | - | - |
| 1777838879 | 12.78° C | 34% | 1006.3 hPa | 0 mm | 2.24 m/s, 359° | - | - |
| 1777838579 | 12.78° C | 33% | 1006.3 hPa | 0 mm | 2.24 m/s, 359° | - | - |
| 1777838279 | 12.78° C | 33% | 1006.4 hPa | 0 mm | 2.68 m/s, 326° | - | - |
| 1777837979 | 12.78° C | 34% | 1006.4 hPa | 0 mm | 2.68 m/s, 233° | - | - |
| 1777837679 | 12.78° C | 35% | 1006.4 hPa | 0 mm | 2.68 m/s, 325° | - | - |
| 1777837379 | 12.22° C | 35% | 1006.6 hPa | 0 mm | 2.24 m/s, 335° | - | - |
| 1777837079 | 12.22° C | 36% | 1006.6 hPa | 0 mm | 4.92 m/s, 359° | - | - |
| 1777836779 | 12.22° C | 35% | 1006.6 hPa | 0 mm | 4.92 m/s, 280° | - | - |
| 1777836479 | 12.22° C | 36% | 1006.9 hPa | 0 mm | 2.24 m/s, 351° | - | - |
| 1777836179 | 12.78° C | 34% | 1006.9 hPa | 0 mm | 3.13 m/s, 267° | - | - |
* Rain latest hour (hover to see other rain measurements)
** Current wind speed in m/s (hover to see current wind gust speed)